Regional Weather Roundup
Issued by NWS New Orleans/Baton Rouge, LA

Home | Current Version | Previous Version | Text Only | Print | Product List | Glossary On
Versions: 1 2 3 4 5 6 7 8 9 10 11 12 13 14 15 16 17 18 19 20 21 22 23 24 25 26 27 28 29 30 31 32 33 34 35 36 37 38 39 40 41 42 43 44 45 46 47 48 49 50
000
ASUS44 KLIX 262014
RWRLIX
NEW ORLEANS REGIONAL WEATHER ROUNDUP
NATIONAL WEATHER SERVICE NEW ORLEANS LA
300 PM CDT MON JUN 26 2017

NOTE: "FAIR" INDICATES FEW OR NO CLOUDS BELOW 12,000 FEET WITH NO
      SIGNIFICANT WEATHER AND/OR OBSTRUCTIONS TO VISIBILITY.
      SKY/WX - SKY CONDITION AND SIGNIFICANT WEATHER.
      TMP - AIR TEMPERATURE.     DP    - DEWPOINT TEMPERATURE.
      RH  - RELATIVE HUMIDITY.   PRES  - PRESSURE.
      HI  - HEAT INDEX.          WCI   - WIND CHILL INDEX.

*  THESE STATIONS ARE NOT NWS OR FAA STATIONS AND ARE NOT UNDER
   NWS QUALITY CONTROL.

LAZ038-040-048-061>063-065>067-069-262100-
SOUTHEAST LOUISIANA

CITY           SKY/WX    TMP DP  RH WIND       PRES   REMARKS
N.O. INTL ARPT MOSUNNY   87  68  52 NE9       30.05F
N.O. LAKEFRONT MOSUNNY   86  68  54 E7        30.06F
N.O. DOWNTOWN*   N/A     85  69  58 NE9         N/A
RESERVE*         N/A     88  69  53 E10       30.06F
SLIDELL        MOSUNNY   86  67  52 E7        30.05F
BATON ROUGE    SUNNY     86  68  54 NE8       30.06F
BOOTHVILLE     SUNNY     84  76  76 E10       30.06F
BELLE CHASSE   MOSUNNY  N/A N/A N/A E10       30.05R FOG
BOGALUSA*        N/A     87  63  45 N7        30.08F
GALLIANO*      CLEAR     86  72  62 E8        30.05F
NEW ROADS*       N/A     83  70  64 NE3       30.07F
GONZALES*        N/A     87  69  54 CALM      30.04F
HAMMOND*       CLOUDY    88  64  45 NE7       30.06F
HOUMA*         PTSUNNY   86  75  70 NE8       30.04F HX  95
PORT FOURCHON* MOCLDY   N/A N/A N/A E12       30.04F

$$

MSZ070-080>082-262100-
SOUTHERN MISSISSIPPI

CITY           SKY/WX    TMP DP  RH WIND       PRES   REMARKS
MCCOMB         SUNNY     85  61  44 NE8       30.09F
GULFPORT       CLOUDY    88  64  44 NE8       30.05F
BILOXI         PTSUNNY   86  66  50 NE7       30.05F
PASCAGOULA     SUNNY     88  60  38 N10       30.05F
STENNIS ARPT*  MOSUNNY   88  64  45 N8        30.06F

$$

COASTAL OBSERVATIONS
LAKE AND NEARSHORE STATIONS

STATION/POSITION TIME  TEMP    WIND        PRES    WAVE
                       AIR SEA DIR/SP/G            HT/PER
                 (UTC) (F)     (DEG/KT/KT) (MB)    (FT/S)
PASCAGOULA       1948   87      40/  4/ 11 1017.5
WAVELAND YACHT   1948   81 81  140/  7/  8 1017.8
GRAND ISLE       1948   86 85  100/  7/ 12 1017.6
SOUTHWEST PASS   1948   86      80/ 11/ 13   N/A
NEW CANAL        1948   83 82   60/  9/ 10 1017.7
SHELL BEACH      1948   81 86   80/  9/ 10 1018.1

OFFSHORE STATIONS

STATION/POSITION TIME  TEMP    WIND        PRES    WAVE
                       AIR SEA DIR/SP/G            HT/PER
                 (UTC) (F)     (DEG/KT/KT) (MB)    (FT/S)
64 S DAUPHIN ISL 1950   81 85   60/ 10/ 12 1017.8    2/ 4

$$




USA.gov is the U.S. government's official web portal to all federal, state and local government web resources and services.